Showing default

JILIN-01 KUANFU 02B 5, 61193

Orbit data source: Space-Track

JILIN-01 KUANFU 02B 5, 61193 is a payload satellite owned by Changguang WJ (CN) in SSO that was launched on Fri, 20 Sep 2024 UTC via a CHANG ZHENG 2D launch vehicle from the Taiyaun Space Center, China (TSC). Payload-class satellites include a variety of spacecraft equipped with specific instruments for various scientific and technological missions. These include communications satellites like Starlink; space stations such as the ISS; scientific satellites like the Hubble; Earth observation satellites from companies like Planet Labs, Umbra, and HawkEye 360; GPS; miniature CubeSats for education and research; and military/defense satellites.

Loading next visibility...
Identifier
61193, 2024-169E
Orbit
SSO
Country
Flag of CNCN / PRC
Related business
Manufacturer
HARB/CGSTL
Mission
Operational Commercial Imaging
Bus & Motor
JL-1, Unknown motor
Mass
230 kg wet, ~200 kg dry
Launch date (UTC)
2024-09-20 (2 years ago)
Launch vehicle
CHANG ZHENG 2D
Launch site
Taiyaun Space Center, China (TSC)
Object type
Payload
Rocket body
Debris
Shape & HBR
Box + 2 Pan, 0.8 m
Radar Cross Section
0.514 m², Large (>1 m²)

Expand to show TLE details & history
Last TLE update: 7 hours ago

TLE from 7 hours ago
0 JILIN-01 KUANFU 02B 5
1 61193U 24169E   26163.81707142  .00003111  00000-0  20120-3 0  9994
2 61193  97.5574 253.5399 0011906 308.4359  51.5801 15.08873678 95179
Epoch: 2026-06-12T19:36Z
TLE epoch observation values (Epoch: 2026-06-12T19:36:34.970Z)
Latitude
0.00004°
Longitude
58.25311°
Altitude
537.598 km
Speed
7.597 km/s
True Right ascension
16h 54m 09s
True Declination
0° 00' 00"
Sunlit
Object was in full shadow at epoch
Visualization orbit readout
Latitude
Unknown
Longitude
Unknown
Altitude
Unknown
Speed
Unknown
Apparent Right ascension
Unknown
Apparent Declination
Unknown
Sunlit
N/A
Visualization observer readout
Local Sidereal Time
12:42:44
Azimuth
Unknown
Elevation
Unknown
Doppler factor
Unknown
Orbital elements
Apogee altitude
544.86 km
Perigee altitude
528.395 km
Semi-major axis
6,914.765 km
Eccentricity
0.00119
Inclination
97.5574°
RAAN
253.5399°
Arg. of periapsis
308.4359°
True anomaly
51.68709°
Mean anomaly
51.5801°
Eccentric anomaly
51.63359°
Mean motion
3.77465 °/min
Orbital period
95.37 mins
BSTAR
0.0002012
Loading maneuver chart data...
Computing Atmospheric mass density...
Loading historical data...
Loading historical data...
Loading historical data...
Loading historical data...
Loading historical data...
Loading historical data...
Loading historical data...

Documentation

Showing up to 5 results
|